[source: ADDS]
METAR
TAF EDVE 081700Z 0818/0821 25012KT 9999 BKN030 PROB30 TEMPO 0818/0821 24015G25KT EDDV 090350Z 22012G22KT 200V260 9999 -SHRA FEW028TCU SCT045 07/03 Q0995 NOSIG

TAF EDDV 082300Z 0900/0924 23013G23KT 9999 SCT025 BECMG 0906/0908 20010KT PROB30 TEMPO 0910/0916 25015G25KT SHRA BKN015CB BECMG 0913/0915 28013KT TEMPO 0916/0921 31020G30KT SHRA BKN015CB ETHS 090320Z 25015KT 9999 BKN040 07/02 Q0994 BLU

ETHC 090320Z 22010KT 9999 BKN033 07/02 Q0995 BLU

TAF EDVK 082000Z 0821/0903 23012KT 9999 BKN015 TEMPO 0821/0903 25015G25KT 4000 SHRA BKN008 BKN012TCU
TAF
TAF EDVE 081700Z 0818/0821 25012KT 9999 BKN030 PROB30 TEMPO 0818/0821 24015G25KT

TAF EDDV 082300Z 0900/0924 23013G23KT 9999 SCT025 BECMG 0906/0908 20010KT PROB30 TEMPO 0910/0916 25015G25KT SHRA BKN015CB BECMG 0913/0915 28013KT TEMPO 0916/0921 31020G30KT SHRA BKN015CB

TAF EDVK 082000Z 0821/0903 23012KT 9999 BKN015 TEMPO 0821/0903 25015G25KT 4000 SHRA BKN008 BKN012TCU

SR / SS: 07:14 / 15:05 UTC (EDVE 2019-12-09)
Stefan hat die praktische Prüfung bestanden! Herzlichen Glückwunsch und Always Happy Landings! +++ Ein weiteres Mitglied hat die Prüfung zum Fluglehrer gemeistert. Glückwunsch Nico und viel Erfolg beim Ausbilden! +++ Florian Hansmann ist ab sofort als Fluglehrer für die FFG tätig! Danke für das Engagement und viel Spaß mit deinen zukünftigen Schülern! +++ Willkommen im Verein Michael und viel Erfolg für deine Ausbildung! +++ Herzlich Willkommen bei der FFG Jens! +++ Uwe hat die PPL-Prüfung bestanden! Herzlichen Glückwunsch und Always Happy Landings!! +++ Hallo und herzlich Willkommen Lothar! Wir wünschen viel Spaß und Erfolg für die Ausbildung! +++ Und schon wieder hat sich ein Schüler freigeflogen, herzlichen Glückwunsch Sebastian zum ersten Solo! +++ Auch Mathias hat sein erstes Solo hinter sich gebracht. Herzlichen Glückwunsch und weiterhin Happy Landings!

Neues Bild in 60 Sekunden

Letztes NOTAM EDVE
von 01.12.2019 0851Z bis 02.01.2020 2359Z
TWY H CLSD.

Letztes NOTAM EDCB
von 21.12.2019 0000Z bis 10.01.2020 2359Z
AERODROME HOURS OF SERVICE DEC 21 - JAN 03 CLOSED JAN 04 - 10 PPR PPR VIA PHONE 0049 162 3223761, 0049 173 9536362, 0049 39483 215. <[more]

von 18.11.2019 1015Z bis 15.02.2020 2359Z
ALL VFR AND IFR PROC TEMPO SUSPENDED. USABLE ONLY FOR FLIGHT VALIDATION.

Letztes NOTAM EDVM
von 30.11.2019 1100Z bis 29.02.2020 1700Z
GRASS RWY 07/25 CLSD.

Letztes NOTAM EDOV
von 24.12.2019 0000Z bis 06.01.2020 2359Z
AD CLOSED.

Letztes NOTAM EDVI
von 15.12.2019 0000Z bis 29.02.2020 2259Z
AERODROME AVBL PPR. PPR REQ TEL. +49(0)163-5744126 OR +49(0)5271-6999060.

Letztes NOTAM EDDV
von 09.12.2019 0800Z bis 09.12.2019 1400Z
ILS RWY09R, DME-PART IHSE/HANNOVER IHSE CH24X ON MAINT. DO NOT USE, FALSE INDICATIONS POSS.

Letztes NOTAM EDVK
von 29.12.2019 0001Z bis 01.01.2020 1900Z
AD CLSD JAN 01 0630-1900. PPR FROM 0730-0830 AND FROM 1700-1900. REQ PPR UNTIL DEC 29 1700.

          aerodata150     Radio38